Skip Page Navigation
NASA JPL Caltech
NASA Logo - Jet Propulsion Laboratory + View the NASA Portal
+ Center for Near-Earth Object Studies
JPL Home Earth Solar System Stars & Galaxies Technology
JPL Solar System Dynamics
BODIES ORBITS EPHEMERIDES TOOLS PHYSICAL DATA DISCOVERY FAQ SITE MAP
IMPORTANT: The SSD Announcement email list is now available. Major changes are coming in the near future, including possible hostname and/or URL changes. To be notified of such changes, subscribe to this email list.

Please visit this page for more details.


JPL Small-Body Database Browser
Search: [ help ]  
434784 (2006 OL1)
Classification: Main-belt Asteroid          SPK-ID: 2434784
Ephemeris | Orbit Diagram | Orbital Elements | Mission Design | Physical Parameters | Discovery Circumstances ]

[ show orbit diagram ]
Orbital Elements at Epoch 2458600.5 (2019-Apr-27.0) TDB
Reference: JPL 12 (heliocentric ecliptic J2000)
 Element Value Uncertainty (1-sigma)   Units 
e .1640341657279749 6.4609e-08  
a 2.184750468415705 1.6865e-08 au
q 1.826376748005332 1.3506e-07 au
i 3.549266716531398 8.278e-06 deg
node 129.4136690066598 9.2808e-05 deg
peri 149.4758409197867 9.6448e-05 deg
M .4663652636136032 2.5011e-05 deg
tp 2458598.971994620902
(2019-Apr-25.47199462)
8.1944e-05 TDB
period 1179.508808638889
3.23
1.3657e-05
3.739e-08
d
yr
n .3052117944040003 3.534e-09 deg/d
Q 2.543124188826077 1.9631e-08 au
  Orbit Determination Parameters
   # obs. used (total)      93  
   data-arc span      4898 days (13.41 yr)  
   first obs. used      2006-05-30  
   last obs. used      2019-10-27  
   planetary ephem.      DE431  
   SB-pert. ephem.      SB431-N16  
   condition code      0  
   norm. resid. RMS      .63022  
   source      ORB  
   producer      Otto Matic  
   solution date      2019-Nov-08 15:41:26  

Additional Information
 Earth MOID = .810451 au 
 Jupiter MOID = 2.57841 au 
 T_jup = 3.658 
[ show covariance matrix ]

Ephemeris | Orbit Diagram | Orbital Elements | Mission Design | Physical Parameters | Discovery Circumstances ]

Physical Parameter Table
Parameter Symbol Value Units Sigma Reference Notes
absolute magnitude H 18.4   n/a MPO437682  

434784 (2006 OL1)          Discovered 2006-May-30 by Mt. Lemmon Survey at Mount Lemmon
Reference: Last Updated: 2015-06-04
Ephemeris | Orbit Diagram | Orbital Elements | Mission Design | Physical Parameters | Discovery Circumstances ]
ABOUT SSD CREDITS/AWARDS PRIVACY/COPYRIGHT GLOSSARY LINKS
FirstGov
(server date/time)  
NASA Home Page
Site Manager:   Ryan S. Park
Webmaster  Alan B. Chamberlin